Wind_Speed
28 26 24 25 25 25 24 24 23 22 22 23 23 22 22 22 22 22 22 21 20 21 21 22 23 25 28 29 29 28 25 24 22 21 20 19 18 17 16 16 15 14 13
30 26 24 24 24 24 24 24 24 23 23 23 23 23 23 23 22 22 21 21 20 20 21 21 23 24 26 28 31 31 29 27 26 25 23 22 21 20 19 17 16 15 14
30 24 23 23 23 23 24 24 24 24 24 24 24 25 24 23 23 22 21 21 21 21 21 22 23 24 25 26 30 33 32 31 30 28 27 25 24 23 22 20 18 17 15
26 22 20 21 21 21 22 23 24 25 25 25 25 25 25 24 23 22 22 21 21 21 21 22 23 24 25 25 27 29 33 34 33 32 31 29 27 26 25 23 21 20 18
24 21 20 21 20 21 21 22 23 24 25 25 25 25 24 23 22 21 20 20 20 20 20 21 22 23 24 25 26 27 29 32 34 35 34 33 31 29 28 26 24 23 22
22 22 22 22 21 21 21 22 22 23 24 24 24 24 23 22 21 20 19 18 17 18 18 19 20 21 23 25 26 27 28 30 33 36 37 36 34 32 31 29 27 26 25
22 22 22 23 23 23 22 22 22 23 23 23 23 23 22 21 20 18 17 16 15 15 16 17 18 19 21 23 25 26 27 28 30 34 36 38 37 36 34 32 31 29 28
20 21 22 24 25 25 24 24 23 23 23 24 23 22 21 21 20 18 17 16 14 14 15 16 16 18 20 21 23 25 26 27 29 31 35 37 39 39 37 36 34 32 31
21 22 24 25 26 26 26 26 26 25 25 25 25 24 23 22 21 20 19 17 16 15 14 15 15 16 18 20 22 24 25 27 28 30 32 35 37 38 39 38 37 36 35
25 25 25 26 27 28 28 28 28 28 28 28 27 26 25 24 24 23 21 19 18 16 15 15 15 16 17 19 21 23 25 26 28 29 31 33 34 36 37 38 39 39 38
30 30 29 29 29 29 30 31 31 31 31 31 30 29 28 26 25 24 23 21 20 18 17 17 16 16 17 18 20 22 24 26 28 29 30 32 33 34 34 36 38 39 40
36 36 35 34 33 32 32 33 33 33 33 33 33 32 31 30 28 27 26 25 23 21 19 19 19 18 18 19 19 21 24 26 28 29 30 31 32 33 34 34 35 38 39
43 43 42 40 39 38 37 37 36 36 37 36 36 35 34 33 31 30 28 28 27 24 22 22 21 20 20 20 20 21 23 25 26 29 30 31 32 32 33 34 33 34 36
49 49 49 48 47 45 43 42 41 41 41 40 39 39 38 37 35 33 31 30 29 28 26 24 23 22 22 21 21 22 22 24 25 27 29 30 31 32 32 33 32 33 34
53 54 55 55 54 53 51 49 47 46 45 45 44 43 42 40 39 36 34 32 31 30 30 28 25 24 24 23 23 22 22 23 24 26 27 28 29 30 30 31 31 32 32
55 57 59 60 60 60 58 57 55 53 51 49 49 47 45 44 42 40 37 35 32 31 31 30 28 26 25 24 23 23 22 22 23 25 25 27 28 29 29 28 29 29 29
54 57 60 62 64 65 65 64 63 61 58 56 54 52 49 48 46 43 40 37 34 32 31 31 29 27 25 24 24 23 22 22 23 24 25 27 27 28 26 25 24 25 27
55 57 60 64 66 68 69 69 69 68 65 63 60 57 54 52 50 46 43 39 36 33 32 31 30 28 26 24 23 23 22 21 22 23 25 26 26 27 25 25 24 23 25
53 54 57 60 65 69 72 73 73 72 71 69 66 63 59 57 54 50 46 42 39 35 33 31 30 28 26 24 23 22 21 21 21 23 24 25 26 27 26 24 24 23 22
52 52 53 56 59 64 69 73 76 76 75 74 71 68 65 61 58 55 51 47 42 38 34 32 30 29 26 24 23 22 21 20 21 23 24 25 25 25 24 23 23 22 22
51 50 51 51 53 56 60 65 72 76 77 76 74 71 69 65 61 59 56 51 47 42 37 34 32 29 26 24 23 21 21 20 21 23 24 25 25 25 24 23 23 23 23
49 49 48 48 48 49 51 54 59 65 72 75 75 74 72 67 64 60 57 55 51 46 40 37 33 30 28 25 23 21 20 20 21 22 24 26 26 26 25 25 24 24 23
47 48 47 46 46 45 45 45 46 51 57 65 70 73 73 70 66 61 58 56 53 49 44 39 35 32 29 26 24 21 20 19 20 23 25 26 26 26 25 25 25 25 25
44 46 46 45 44 43 41 39 39 41 43 49 56 62 67 68 66 63 59 57 53 50 46 42 37 34 31 28 25 22 20 19 20 21 23 24 25 25 25 25 25 25 24
38 43 45 44 42 41 40 38 37 35 36 38 43 50 57 62 64 63 59 56 53 50 47 44 40 36 32 29 26 22 20 19 20 21 22 23 24 25 25 26 26 26 25
33 37 41 42 42 40 40 39 38 35 34 33 36 41 47 53 58 60 59 56 53 50 47 44 41 37 33 29 26 23 21 20 20 20 21 22 23 24 24 25 25 25 24
Wind_Direction
259 261 264 265 265 264 264 264 264 264 261 261 263 266 270 272 270 269 265 261 259 256 256 253 249 245 241 238 234 231 229 228 227 225 223 222 222 224 226 227 228 229 229
255 256 260 261 262 261 259 258 259 259 258 259 259 261 263 265 267 266 264 261 260 258 256 254 253 251 246 241 237 233 231 230 229 228 227 226 225 226 228 230 232 234 235
251 257 259 257 257 256 255 255 255 255 255 255 256 257 261 262 261 261 261 260 260 259 256 255 255 251 248 246 241 236 233 232 231 231 230 229 229 229 229 231 233 235 236
249 253 251 252 253 252 251 251 251 252 252 253 254 257 260 261 262 262 262 263 263 262 261 259 256 253 251 251 248 243 239 235 234 233 232 232 232 232 232 232 233 235 236
243 245 249 250 248 246 246 247 248 249 249 251 252 254 256 257 258 261 263 264 266 267 265 263 260 257 254 253 252 250 247 241 237 235 234 234 233 233 233 234 234 236 238
241 245 248 247 243 242 242 243 245 247 247 248 249 249 250 250 252 254 257 261 264 266 266 265 263 260 257 254 253 253 253 249 243 237 235 234 234 234 235 236 236 237 239
246 245 247 247 243 241 240 240 242 244 245 245 244 244 245 245 246 247 249 253 258 263 266 266 265 263 260 257 254 253 253 252 248 241 236 235 234 234 236 238 238 239 240
254 250 250 248 245 242 240 238 237 239 239 239 239 239 240 242 243 243 244 248 252 257 263 267 268 266 264 261 259 256 255 253 250 246 241 238 236 235 237 239 240 241 242
265 260 256 252 247 243 240 238 236 236 235 235 235 236 239 241 241 240 242 244 248 253 260 267 270 270 267 264 261 259 257 255 253 248 246 244 241 240 240 241 243 244 244
269 264 259 255 250 246 242 239 236 234 234 233 234 235 238 240 241 241 240 243 247 252 258 264 270 273 271 268 265 261 258 256 254 252 249 247 244 243 244 245 246 247 246
267 264 260 256 252 248 245 241 238 236 234 233 234 235 237 240 241 243 242 242 247 251 257 263 268 274 275 273 270 265 261 258 255 253 252 250 248 247 246 247 247 247 247
261 259 257 254 251 249 247 245 242 240 237 235 235 235 237 239 241 244 246 245 246 249 255 262 267 273 277 276 273 268 263 259 256 254 252 251 249 249 249 250 248 246 246
257 254 252 251 250 247 245 244 243 242 240 238 236 236 237 238 239 242 246 249 251 253 256 260 266 271 277 279 278 273 267 262 258 254 251 250 250 249 249 250 247 245 244
255 253 250 248 247 246 244 243 242 241 240 239 238 237 238 238 238 240 243 248 253 257 259 261 265 269 274 279 281 279 272 264 259 254 251 249 249 248 249 247 244 241 240
255 252 250 248 245 244 242 242 241 240 239 239 238 238 238 239 239 239 240 244 250 255 260 262 266 268 272 277 281 281 276 266 259 253 250 248 247 246 244 243 240 239 238
258 254 250 247 246 243 241 240 240 239 238 238 238 238 239 239 239 239 239 242 246 251 258 262 264 266 270 275 280 281 277 268 259 253 250 248 245 243 243 241 238 235 231
261 256 251 248 246 244 241 239 238 238 237 237 238 238 238 238 239 238 239 240 243 247 254 258 261 264 267 272 278 279 275 267 259 253 249 246 245 243 241 238 235 232 230
263 258 254 250 246 244 242 239 238 237 236 236 236 237 238 238 238 238 238 239 240 243 248 254 258 261 264 269 275 277 273 266 258 251 246 243 242 239 237 235 234 232 230
266 260 255 251 248 245 242 240 238 237 235 235 235 236 237 238 237 237 237 237 238 240 243 249 254 257 261 266 272 274 270 263 254 248 242 239 239 237 235 233 231 230 231
266 261 257 254 250 247 243 241 240 238 236 235 234 235 236 236 237 237 236 236 236 237 239 244 250 253 257 261 267 270 266 260 251 245 240 237 236 233 231 232 234 235 237
264 258 254 252 250 248 245 243 241 239 237 236 234 233 234 234 235 235 235 235 236 236 237 241 246 250 252 256 261 265 263 257 249 243 239 236 235 233 233 235 237 238 239
260 254 250 247 246 245 244 243 242 240 239 237 236 234 233 231 232 233 233 232 233 234 235 238 242 245 248 251 256 260 259 254 247 242 238 236 235 234 234 234 235 238 240
257 250 245 242 241 241 241 240 240 240 239 239 238 236 234 232 232 231 230 231 231 232 233 235 238 241 243 247 250 254 253 250 244 238 233 233 233 233 233 234 236 239 240
255 246 240 238 237 236 236 235 236 237 237 238 237 236 235 234 233 231 228 228 229 229 230 231 233 236 239 242 245 247 246 245 240 236 233 231 232 232 233 235 235 237 240
253 241 234 233 232 231 232 233 233 233 234 234 235 235 234 233 232 230 228 227 226 226 226 227 229 232 234 236 239 241 241 242 240 236 232 230 231 233 234 234 235 237 239
249 238 230 228 227 227 229 231 231 230 231 231 233 233 233 232 231 229 226 225 224 223 223 223 225 227 228 231 233 233 233 234 234 233 231 231 232 233 233 234 235 236 238
Height
5842 5844 5844 5845 5845 5845 5845 5846 5846 5846 5846 5847 5848 5849 5849 5850 5850 5850 5851 5852 5853 5854 5855 5857 5858 5860 5862 5865 5867 5870 5872 5874 5876 5877 5879 5881 5883 5885 5886 5888 5889 5890 5892
5834 5836 5837 5838 5838 5838 5839 5840 5840 5841 5841 5842 5843 5844 5845 5845 5845 5846 5847 5848 5848 5849 5849 5851 5852 5854 5856 5858 5861 5864 5867 5869 5871 5873 5875 5877 5879 5881 5883 5884 5886 5888 5889
5826 5827 5829 5831 5831 5832 5833 5834 5835 5835 5836 5836 5838 5839 5839 5840 5841 5841 5842 5843 5844 5844 5845 5846 5847 5849 5850 5852 5855 5857 5860 5863 5866 5869 5871 5873 5875 5877 5879 5881 5883 5884 5886
5819 5820 5822 5824 5825 5825 5826 5827 5828 5829 5830 5831 5832 5833 5834 5835 5836 5837 5838 5838 5839 5839 5840 5841 5842 5843 5845 5847 5848 5851 5854 5857 5860 5863 5866 5868 5871 5873 5875 5877 5879 5881 5883
5811 5813 5815 5817 5818 5819 5820 5821 5822 5823 5824 5825 5826 5827 5828 5830 5831 5832 5833 5833 5834 5834 5835 5835 5836 5837 5839 5841 5842 5844 5847 5850 5853 5857 5860 5863 5865 5868 5871 5873 5875 5877 5879
5805 5807 5809 5810 5811 5812 5813 5814 5815 5817 5817 5819 5820 5821 5823 5824 5825 5827 5828 5829 5829 5830 5830 5830 5831 5832 5833 5834 5836 5838 5841 5843 5846 5849 5852 5856 5859 5862 5865 5868 5870 5872 5875
5799 5801 5802 5803 5804 5806 5807 5807 5809 5810 5812 5813 5814 5816 5817 5819 5820 5822 5823 5824 5825 5826 5826 5825 5826 5826 5827 5828 5830 5832 5834 5836 5838 5841 5844 5848 5852 5855 5858 5862 5864 5867 5869
5794 5795 5796 5797 5798 5799 5800 5801 5802 5804 5805 5807 5809 5810 5812 5814 5815 5817 5818 5820 5820 5821 5822 5822 5821 5821 5822 5823 5824 5825 5827 5830 5832 5834 5837 5840 5844 5848 5851 5854 5858 5860 5863
5789 5789 5790 5790 5791 5792 5793 5794 5796 5797 5799 5801 5803 5805 5806 5808 5810 5812 5814 5815 5816 5817 5817 5817 5817 5817 5817 5817 5818 5819 5821 5823 5825 5828 5830 5833 5836 5840 5843 5847 5850 5853 5856
5783 5783 5783 5784 5784 5785 5786 5787 5788 5790 5792 5794 5796 5798 5800 5802 5804 5807 5809 5811 5812 5812 5813 5813 5812 5812 5811 5812 5812 5813 5814 5816 5818 5821 5824 5826 5829 5832 5836 5839 5842 5845 5848
5775 5775 5775 5776 5776 5777 5778 5779 5780 5782 5785 5787 5789 5791 5793 5796 5798 5800 5803 5805 5807 5808 5808 5808 5808 5807 5806 5806 5806 5807 5808 5809 5812 5814 5816 5819 5822 5824 5827 5830 5833 5836 5839
5764 5765 5766 5766 5767 5768 5769 5770 5772 5774 5776 5779 5782 5784 5787 5789 5791 5794 5796 5798 5800 5802 5803 5803 5803 5802 5801 5801 5800 5800 5801 5802 5804 5807 5809 5811 5814 5816 5819 5822 5824 5827 5830
5752 5752 5753 5755 5756 5758 5759 5761 5763 5765 5767 5770 5773 5776 5779 5781 5784 5787 5789 5791 5793 5795 5797 5797 5797 5796 5795 5795 5794 5794 5794 5795 5797 5799 5801 5804 5806 5808 5811 5813 5816 5818 5821
5737 5738 5739 5741 5743 5745 5747 5749 5752 5754 5757 5760 5763 5766 5769 5772 5776 5779 5782 5784 5786 5787 5789 5791 5791 5790 5789 5788 5788 5787 5787 5788 5789 5791 5793 5796 5798 5801 5803 5805 5807 5810 5813
5718 5720 5722 5724 5727 5730 5733 5735 5738 5742 5745 5748 5751 5755 5759 5762 5766 5770 5773 5776 5779 5780 5781 5783 5785 5784 5783 5782 5781 5781 5780 5781 5782 5784 5786 5788 5791 5793 5795 5797 5799 5802 5805
5699 5700 5702 5705 5708 5712 5716 5720 5723 5727 5731 5735 5739 5743 5747 5751 5755 5759 5763 5767 5770 5773 5774 5775 5777 5778 5777 5776 5775 5774 5774 5774 5775 5777 5779 5781 5784 5786 5788 5790 5792 5795 5798
5676 5678 5680 5683 5687 5691 5696 5701 5706 5710 5715 5720 5725 5729 5734 5738 5743 5748 5753 5757 5761 5764 5766 5767 5769 5770 5770 5770 5769 5768 5767 5767 5768 5770 5772 5775 5777 5780 5782 5784 5787 5789 5793
5653 5654 5657 5660 5664 5668 5673 5679 5685 5691 5697 5703 5709 5714 5720 5725 5730 5736 5741 5746 5751 5755 5758 5759 5761 5763 5763 5763 5762 5762 5761 5761 5762 5764 5766 5768 5771 5774 5776 5779 5782 5784 5787
5630 5630 5633 5636 5639 5644 5649 5655 5662 5669 5677 5684 5691 5698 5704 5710 5717 5723 5729 5734 5740 5745 5749 5751 5753 5755 5756 5756 5756 5755 5755 5755 5756 5758 5760 5763 5765 5768 5771 5774 5777 5780 5783
5607 5608 5610 5613 5616 5620 5626 5632 5639 5647 5655 5663 5672 5680 5688 5695 5702 5709 5716 5722 5728 5734 5739 5742 5745 5747 5749 5749 5749 5749 5749 5749 5750 5752 5755 5757 5760 5763 5766 5769 5772 5775 5778
5584 5585 5588 5591 5595 5599 5604 5609 5616 5624 5633 5642 5651 5660 5669 5678 5686 5694 5702 5709 5716 5723 5729 5733 5736 5739 5742 5743 5743 5743 5743 5743 5744 5746 5749 5753 5755 5758 5761 5764 5767 5770 5773
5561 5564 5567 5572 5576 5580 5585 5590 5596 5603 5612 5621 5631 5641 5650 5660 5669 5677 5686 5695 5703 5711 5718 5723 5728 5731 5734 5736 5736 5737 5737 5737 5739 5742 5744 5747 5750 5753 5756 5759 5762 5765 5767
5539 5543 5548 5553 5559 5564 5568 5574 5579 5586 5593 5602 5611 5621 5631 5641 5651 5661 5670 5679 5689 5698 5706 5713 5719 5723 5726 5728 5730 5730 5731 5732 5734 5736 5739 5741 5745 5748 5751 5754 5756 5759 5761
5518 5523 5530 5536 5543 5549 5555 5560 5566 5572 5579 5586 5594 5603 5614 5624 5634 5645 5655 5666 5676 5686 5695 5703 5709 5714 5718 5721 5723 5724 5725 5727 5728 5731 5734 5737 5739 5742 5746 5748 5751 5753 5756
5500 5505 5513 5521 5528 5536 5542 5548 5555 5561 5567 5573 5580 5588 5597 5608 5620 5631 5643 5654 5664 5673 5683 5691 5699 5704 5709 5713 5716 5718 5720 5721 5723 5726 5729 5731 5734 5737 5740 5742 5745 5748 5750
5485 5490 5498 5507 5516 5524 5531 5538 5544 5551 5557 5563 5569 5576 5584 5594 5604 5616 5629 5641 5652 5662 5672 5680 5688 5695 5701 5705 5709 5712 5714 5716 5718 5721 5723 5726 5729 5732 5734 5736 5739 5741 5744